"Time","Value","Approval","myLocation"
"2023-05-23 18:00",34.035,"Approved","OW414"
"2023-05-23 19:00",34.0359980258829,"Approved","OW414"
"2023-05-23 20:00",34.0349960517657,"Approved","OW414"
"2023-05-23 21:00",34.0329940776486,"Approved","OW414"
"2023-05-23 22:00",34.0299921035315,"Approved","OW414"
"2023-05-23 23:00",34.0279901294143,"Approved","OW414"
"2023-05-24 00:00",34.0269881552972,"Approved","OW414"
"2023-05-24 01:00",34.0239861811801,"Approved","OW414"
"2023-05-24 02:00",34.020984207063,"Approved","OW414"
"2023-05-24 03:00",34.0209822329458,"Approved","OW414"
"2023-05-24 04:00",34.0219802588287,"Approved","OW414"
"2023-05-24 05:00",34.0249782847116,"Approved","OW414"
"2023-05-24 06:00",34.0219763105944,"Approved","OW414"
"2023-05-24 07:00",34.0219743364773,"Approved","OW414"
"2023-05-24 08:00",34.0219723623602,"Approved","OW414"
"2023-05-24 09:00",34.021970388243,"Approved","OW414"
"2023-05-24 10:00",34.0199684141259,"Approved","OW414"
"2023-05-24 11:00",34.0189664400088,"Approved","OW414"
"2023-05-24 12:00",34.0199644658916,"Approved","OW414"
"2023-05-24 13:00",34.0229624917745,"Approved","OW414"
"2023-05-24 14:00",34.0259605176574,"Approved","OW414"
"2023-05-24 15:00",34.0289585435403,"Approved","OW414"
"2023-05-24 16:00",34.0259565694231,"Approved","OW414"
"2023-05-24 17:00",34.024954595306,"Approved","OW414"
"2023-05-24 18:00",34.0259526211889,"Approved","OW414"
"2023-05-24 19:00",34.0239506470717,"Approved","OW414"
"2023-05-24 20:00",34.0229486729546,"Approved","OW414"
"2023-05-24 21:00",34.0229466988375,"Approved","OW414"
"2023-05-24 22:00",34.0169447247203,"Approved","OW414"
"2023-05-24 23:00",34.0119427506032,"Approved","OW414"
"2023-05-25 00:00",34.0049407764861,"Approved","OW414"
"2023-05-25 01:00",33.9979388023689,"Approved","OW414"
"2023-05-25 02:00",33.9929368282518,"Approved","OW414"
"2023-05-25 03:00",33.9919348541347,"Approved","OW414"
"2023-05-25 04:00",33.9939328800175,"Approved","OW414"
"2023-05-25 05:00",33.9969309059004,"Approved","OW414"
"2023-05-25 06:00",33.9979289317833,"Approved","OW414"
"2023-05-25 07:00",33.9969269576662,"Approved","OW414"
"2023-05-25 08:00",33.994924983549,"Approved","OW414"
"2023-05-25 09:00",33.9939230094319,"Approved","OW414"
"2023-05-25 10:00",33.9939210353148,"Approved","OW414"
"2023-05-25 11:00",33.9949190611976,"Approved","OW414"
"2023-05-25 12:00",33.9949170870805,"Approved","OW414"
"2023-05-25 13:00",33.9949151129634,"Approved","OW414"
"2023-05-25 14:00",33.9949131388462,"Approved","OW414"
"2023-05-25 15:00",33.9979111647291,"Approved","OW414"
"2023-05-25 16:00",33.995909190612,"Approved","OW414"
"2023-05-25 17:00",33.9939072164948,"Approved","OW414"
"2023-05-25 18:00",33.9949052423777,"Approved","OW414"
"2023-05-25 19:00",33.9889032682606,"Approved","OW414"
"2023-05-25 20:00",33.9829012941435,"Approved","OW414"
"2023-05-25 21:00",33.9788993200263,"Approved","OW414"
"2023-05-25 22:00",33.9768973459092,"Approved","OW414"
"2023-05-25 23:00",33.9708953717921,"Approved","OW414"
"2023-05-26 00:00",33.9658933976749,"Approved","OW414"
"2023-05-26 01:00",33.9628914235578,"Approved","OW414"
"2023-05-26 02:00",33.9608894494407,"Approved","OW414"
"2023-05-26 03:00",33.9628874753235,"Approved","OW414"
"2023-05-26 04:00",33.9668855012064,"Approved","OW414"
"2023-05-26 05:00",33.9718835270893,"Approved","OW414"
"2023-05-26 06:00",33.9738815529721,"Approved","OW414"
"2023-05-26 07:00",33.977879578855,"Approved","OW414"
"2023-05-26 08:00",33.9828776047379,"Approved","OW414"
"2023-05-26 09:00",33.9838756306208,"Approved","OW414"
"2023-05-26 10:00",33.9858736565036,"Approved","OW414"
"2023-05-26 11:00",33.9868716823865,"Approved","OW414"
"2023-05-26 12:00",33.9888697082694,"Approved","OW414"
"2023-05-26 13:00",33.9928677341522,"Approved","OW414"
"2023-05-26 14:00",33.9978657600351,"Approved","OW414"
"2023-05-26 15:00",33.997863785918,"Approved","OW414"
"2023-05-26 16:00",34.0008618118008,"Approved","OW414"
"2023-05-26 17:00",33.9978598376837,"Approved","OW414"
"2023-05-26 18:00",33.9968578635666,"Approved","OW414"
"2023-05-26 19:00",33.9948558894494,"Approved","OW414"
"2023-05-26 20:00",33.9938539153323,"Approved","OW414"
"2023-05-26 21:00",33.9918519412152,"Approved","OW414"
"2023-05-26 22:00",33.9878499670981,"Approved","OW414"
"2023-05-26 23:00",33.9828479929809,"Approved","OW414"
"2023-05-27 00:00",33.9778460188638,"Approved","OW414"
"2023-05-27 01:00",33.9748440447467,"Approved","OW414"
"2023-05-27 02:00",33.9728420706295,"Approved","OW414"
"2023-05-27 03:00",33.9738400965124,"Approved","OW414"
"2023-05-27 04:00",33.9758381223953,"Approved","OW414"
"2023-05-27 05:00",33.9818361482781,"Approved","OW414"
"2023-05-27 06:00",33.985834174161,"Approved","OW414"
"2023-05-27 07:00",33.9888322000439,"Approved","OW414"
"2023-05-27 08:00",33.9898302259267,"Approved","OW414"
"2023-05-27 09:00",33.9928282518096,"Approved","OW414"
"2023-05-27 10:00",33.9978262776925,"Approved","OW414"
"2023-05-27 11:00",34.0038243035753,"Approved","OW414"
"2023-05-27 12:00",34.0078223294582,"Approved","OW414"
"2023-05-27 13:00",34.0118203553411,"Approved","OW414"
"2023-05-27 14:00",34.019818381224,"Approved","OW414"
"2023-05-27 15:00",34.0248164071068,"Approved","OW414"
"2023-05-27 16:00",34.0278144329897,"Approved","OW414"
"2023-05-27 17:00",34.0298124588726,"Approved","OW414"
"2023-05-27 18:00",34.0308104847554,"Approved","OW414"
"2023-05-27 19:00",34.0308085106383,"Approved","OW414"
"2023-05-27 20:00",34.0298065365212,"Approved","OW414"
"2023-05-27 21:00",34.028804562404,"Approved","OW414"
"2023-05-27 22:00",34.0288025882869,"Approved","OW414"
"2023-05-27 23:00",34.0258006141698,"Approved","OW414"
"2023-05-28 00:00",34.0237986400526,"Approved","OW414"
"2023-05-28 01:00",34.0247966659355,"Approved","OW414"
"2023-05-28 02:00",34.0257946918184,"Approved","OW414"
"2023-05-28 03:00",34.0287927177013,"Approved","OW414"
"2023-05-28 04:00",34.0317907435841,"Approved","OW414"
"2023-05-28 05:00",34.037788769467,"Approved","OW414"
"2023-05-28 06:00",34.0387867953499,"Approved","OW414"
"2023-05-28 07:00",34.0417848212327,"Approved","OW414"
"2023-05-28 08:00",34.0447828471156,"Approved","OW414"
"2023-05-28 09:00",34.0437808729985,"Approved","OW414"
"2023-05-28 10:00",34.0467788988813,"Approved","OW414"
"2023-05-28 11:00",34.0497769247642,"Approved","OW414"
"2023-05-28 12:00",34.0477749506471,"Approved","OW414"
"2023-05-28 13:00",34.0567729765299,"Approved","OW414"
"2023-05-28 14:00",34.0617710024128,"Approved","OW414"
"2023-05-28 15:00",34.0617690282957,"Approved","OW414"
"2023-05-28 16:00",34.0657670541786,"Approved","OW414"
"2023-05-28 17:00",34.0667650800614,"Approved","OW414"
"2023-05-28 18:00",34.0647631059443,"Approved","OW414"
"2023-05-28 19:00",34.0637611318272,"Approved","OW414"
"2023-05-28 20:00",34.05675915771,"Approved","OW414"
"2023-05-28 21:00",34.0517571835929,"Approved","OW414"
"2023-05-28 22:00",34.0457552094758,"Approved","OW414"
"2023-05-28 23:00",34.0387532353586,"Approved","OW414"
"2023-05-29 00:00",34.0327512612415,"Approved","OW414"
"2023-05-29 01:00",34.0277492871244,"Approved","OW414"
"2023-05-29 02:00",34.0237473130072,"Approved","OW414"
"2023-05-29 03:00",34.0247453388901,"Approved","OW414"
"2023-05-29 04:00",34.023743364773,"Approved","OW414"
"2023-05-29 05:00",34.0277413906558,"Approved","OW414"
"2023-05-29 06:00",34.0247394165387,"Approved","OW414"
"2023-05-29 07:00",34.0217374424216,"Approved","OW414"
"2023-05-29 08:00",34.0207354683045,"Approved","OW414"
"2023-05-29 09:00",34.0187334941873,"Approved","OW414"
"2023-05-29 10:00",34.0197315200702,"Approved","OW414"
"2023-05-29 11:00",34.0207295459531,"Approved","OW414"
"2023-05-29 12:00",34.0217275718359,"Approved","OW414"
"2023-05-29 13:00",34.0217255977188,"Approved","OW414"
"2023-05-29 14:00",34.0217236236017,"Approved","OW414"
"2023-05-29 15:00",34.0237216494845,"Approved","OW414"
"2023-05-29 16:00",34.0247196753674,"Approved","OW414"
"2023-05-29 17:00",34.0247177012503,"Approved","OW414"
"2023-05-29 18:00",34.0227157271331,"Approved","OW414"
"2023-05-29 19:00",34.019713753016,"Approved","OW414"
"2023-05-29 20:00",34.0177117788989,"Approved","OW414"
"2023-05-29 21:00",34.0137098047818,"Approved","OW414"
"2023-05-29 22:00",34.0077078306646,"Approved","OW414"
"2023-05-29 23:00",34.0037058565475,"Approved","OW414"
"2023-05-30 00:00",34.0027038824304,"Approved","OW414"
"2023-05-30 01:00",33.9997019083132,"Approved","OW414"
"2023-05-30 02:00",33.9996999341961,"Approved","OW414"
"2023-05-30 03:00",34.000697960079,"Approved","OW414"
"2023-05-30 04:00",34.0006959859618,"Approved","OW414"
"2023-05-30 05:00",34.0016940118447,"Approved","OW414"
"2023-05-30 06:00",34.0046920377276,"Approved","OW414"
"2023-05-30 07:00",34.0066900636104,"Approved","OW414"
"2023-05-30 08:00",34.0076880894933,"Approved","OW414"
"2023-05-30 09:00",34.0106861153762,"Approved","OW414"
"2023-05-30 10:00",34.014684141259,"Approved","OW414"
"2023-05-30 11:00",34.0206821671419,"Approved","OW414"
"2023-05-30 12:00",34.0236801930248,"Approved","OW414"
"2023-05-30 13:00",34.0296782189077,"Approved","OW414"
"2023-05-30 14:00",34.0346762447905,"Approved","OW414"
"2023-05-30 15:00",34.0406742706734,"Approved","OW414"
"2023-05-30 16:00",34.0456722965563,"Approved","OW414"
"2023-05-30 17:00",34.0476703224391,"Approved","OW414"
"2023-05-30 18:00",34.051668348322,"Approved","OW414"
"2023-05-30 19:00",34.0516663742049,"Approved","OW414"
"2023-05-30 20:00",34.0496644000877,"Approved","OW414"
"2023-05-30 21:00",34.0516624259706,"Approved","OW414"
"2023-05-30 22:00",34.0506604518535,"Approved","OW414"
"2023-05-30 23:00",34.0446584777363,"Approved","OW414"
"2023-05-31 00:00",34.0456565036192,"Approved","OW414"
"2023-05-31 01:00",34.0436545295021,"Approved","OW414"
"2023-05-31 02:00",34.042652555385,"Approved","OW414"
"2023-05-31 03:00",34.0416505812678,"Approved","OW414"
"2023-05-31 04:00",34.0406486071507,"Approved","OW414"
"2023-05-31 05:00",34.0466466330336,"Approved","OW414"
"2023-05-31 06:00",34.0466446589164,"Approved","OW414"
"2023-05-31 07:00",34.0446426847993,"Approved","OW414"
"2023-05-31 08:00",34.0436407106822,"Approved","OW414"
"2023-05-31 09:00",34.046638736565,"Approved","OW414"
"2023-05-31 10:00",34.0476367624479,"Approved","OW414"
"2023-05-31 11:00",34.0486347883308,"Approved","OW414"
"2023-05-31 12:00",34.0506328142136,"Approved","OW414"
"2023-05-31 13:00",34.0546308400965,"Approved","OW414"
"2023-05-31 14:00",34.0576288659794,"Approved","OW414"
"2023-05-31 15:00",34.0596268918623,"Approved","OW414"
"2023-05-31 16:00",34.0616249177451,"Approved","OW414"
"2023-05-31 17:00",34.062622943628,"Approved","OW414"
"2023-05-31 18:00",34.0626209695109,"Approved","OW414"
"2023-05-31 19:00",34.0636189953937,"Approved","OW414"
"2023-05-31 20:00",34.0626170212766,"Approved","OW414"
"2023-05-31 21:00",34.0576150471595,"Approved","OW414"
"2023-05-31 22:00",34.0546130730423,"Approved","OW414"
"2023-05-31 23:00",34.0526110989252,"Approved","OW414"
"2023-06-01 00:00",34.0516091248081,"Approved","OW414"
"2023-06-01 01:00",34.0486071506909,"Approved","OW414"
"2023-06-01 02:00",34.0476051765738,"Approved","OW414"
"2023-06-01 03:00",34.0456032024567,"Approved","OW414"
"2023-06-01 04:00",34.0486012283395,"Approved","OW414"
"2023-06-01 05:00",34.0515992542224,"Approved","OW414"
"2023-06-01 06:00",34.0545972801053,"Approved","OW414"
"2023-06-01 07:00",34.0545953059882,"Approved","OW414"
"2023-06-01 08:00",34.052593331871,"Approved","OW414"
"2023-06-01 09:00",34.0505913577539,"Approved","OW414"
"2023-06-01 10:00",34.0515893836368,"Approved","OW414"
"2023-06-01 11:00",34.0545874095196,"Approved","OW414"
"2023-06-01 12:00",34.0565854354025,"Approved","OW414"
"2023-06-01 13:00",34.0595834612854,"Approved","OW414"
"2023-06-01 14:00",34.0625814871682,"Approved","OW414"
"2023-06-01 15:00",34.0635795130511,"Approved","OW414"
"2023-06-01 16:00",34.062577538934,"Approved","OW414"
"2023-06-01 17:00",34.0585755648168,"Approved","OW414"
"2023-06-01 18:00",34.0555735906997,"Approved","OW414"
"2023-06-01 19:00",34.0525716165826,"Approved","OW414"
"2023-06-01 20:00",34.0495696424654,"Approved","OW414"
"2023-06-01 21:00",34.0445676683483,"Approved","OW414"
"2023-06-01 22:00",34.0395656942312,"Approved","OW414"
"2023-06-01 23:00",34.0365637201141,"Approved","OW414"
"2023-06-02 00:00",34.0335617459969,"Approved","OW414"
"2023-06-02 01:00",34.0325597718798,"Approved","OW414"
"2023-06-02 02:00",34.0305577977627,"Approved","OW414"
"2023-06-02 03:00",34.0315558236455,"Approved","OW414"
"2023-06-02 04:00",34.0355538495284,"Approved","OW414"
"2023-06-02 05:00",34.0395518754113,"Approved","OW414"
"2023-06-02 06:00",34.0395499012941,"Approved","OW414"
"2023-06-02 07:00",34.038547927177,"Approved","OW414"
"2023-06-02 08:00",34.0405459530599,"Approved","OW414"
"2023-06-02 09:00",34.0425439789428,"Approved","OW414"
"2023-06-02 10:00",34.0445420048256,"Approved","OW414"
"2023-06-02 11:00",34.0475400307085,"Approved","OW414"
"2023-06-02 12:00",34.0495380565914,"Approved","OW414"
"2023-06-02 13:00",34.0545360824742,"Approved","OW414"
"2023-06-02 14:00",34.0575341083571,"Approved","OW414"
"2023-06-02 15:00",34.06153213424,"Approved","OW414"
"2023-06-02 16:00",34.0655301601228,"Approved","OW414"
"2023-06-02 17:00",34.0645281860057,"Approved","OW414"
"2023-06-02 18:00",34.0625262118886,"Approved","OW414"
"2023-06-02 19:00",34.0615242377714,"Approved","OW414"
"2023-06-02 20:00",34.0595222636543,"Approved","OW414"
"2023-06-02 21:00",34.0555202895372,"Approved","OW414"
"2023-06-02 22:00",34.05351831542,"Approved","OW414"
"2023-06-02 23:00",34.0505163413029,"Approved","OW414"
"2023-06-03 00:00",34.0485143671858,"Approved","OW414"
"2023-06-03 01:00",34.0455123930687,"Approved","OW414"
"2023-06-03 02:00",34.0455104189515,"Approved","OW414"
"2023-06-03 03:00",34.0485084448344,"Approved","OW414"
"2023-06-03 04:00",34.0515064707173,"Approved","OW414"
"2023-06-03 05:00",34.0575044966001,"Approved","OW414"
"2023-06-03 06:00",34.057502522483,"Approved","OW414"
"2023-06-03 07:00",34.0595005483659,"Approved","OW414"
"2023-06-03 08:00",34.0604985742487,"Approved","OW414"
"2023-06-03 09:00",34.0614966001316,"Approved","OW414"
"2023-06-03 10:00",34.0624946260145,"Approved","OW414"
"2023-06-03 11:00",34.0644926518973,"Approved","OW414"
"2023-06-03 12:00",34.0684906777802,"Approved","OW414"
"2023-06-03 13:00",34.0714887036631,"Approved","OW414"
"2023-06-03 14:00",34.071486729546,"Approved","OW414"
"2023-06-03 15:00",34.0734847554288,"Approved","OW414"
"2023-06-03 16:00",34.0714827813117,"Approved","OW414"
"2023-06-03 17:00",34.0674808071946,"Approved","OW414"
"2023-06-03 18:00",34.0654788330774,"Approved","OW414"
"2023-06-03 19:00",34.0604768589603,"Approved","OW414"
"2023-06-03 20:00",34.0554748848432,"Approved","OW414"
"2023-06-03 21:00",34.052472910726,"Approved","OW414"
"2023-06-03 22:00",34.0484709366089,"Approved","OW414"
"2023-06-03 23:00",34.0464689624918,"Approved","OW414"
"2023-06-04 00:00",34.0424669883746,"Approved","OW414"
"2023-06-04 01:00",34.0374650142575,"Approved","OW414"
"2023-06-04 02:00",34.0354630401404,"Approved","OW414"
"2023-06-04 03:00",34.0394610660233,"Approved","OW414"
"2023-06-04 04:00",34.0414590919061,"Approved","OW414"
"2023-06-04 05:00",34.048457117789,"Approved","OW414"
"2023-06-04 06:00",34.0514551436719,"Approved","OW414"
"2023-06-04 07:00",34.0584531695547,"Approved","OW414"
"2023-06-04 08:00",34.0634511954376,"Approved","OW414"
"2023-06-04 09:00",34.0704492213205,"Approved","OW414"
"2023-06-04 10:00",34.0784472472033,"Approved","OW414"
"2023-06-04 11:00",34.0804452730862,"Approved","OW414"
"2023-06-04 12:00",34.0844432989691,"Approved","OW414"
"2023-06-04 13:00",34.0924413248519,"Approved","OW414"
"2023-06-04 14:00",34.0974393507348,"Approved","OW414"
"2023-06-04 15:00",34.1024373766177,"Approved","OW414"
"2023-06-04 16:00",34.1034354025005,"Approved","OW414"
"2023-06-04 17:00",34.1004334283834,"Approved","OW414"
"2023-06-04 18:00",34.0984314542663,"Approved","OW414"
"2023-06-04 19:00",34.0954294801491,"Approved","OW414"
"2023-06-04 20:00",34.093427506032,"Approved","OW414"
"2023-06-04 21:00",34.0884255319149,"Approved","OW414"
"2023-06-04 22:00",34.0834235577978,"Approved","OW414"
"2023-06-04 23:00",34.0794215836806,"Approved","OW414"
"2023-06-05 00:00",34.0724196095635,"Approved","OW414"
"2023-06-05 01:00",34.0664176354464,"Approved","OW414"
"2023-06-05 02:00",34.0564156613292,"Approved","OW414"
"2023-06-05 03:00",34.0554136872121,"Approved","OW414"
"2023-06-05 04:00",34.053411713095,"Approved","OW414"
"2023-06-05 05:00",34.0534097389778,"Approved","OW414"
"2023-06-05 06:00",34.0524077648607,"Approved","OW414"
"2023-06-05 07:00",34.0504057907436,"Approved","OW414"
"2023-06-05 08:00",34.0514038166265,"Approved","OW414"
"2023-06-05 09:00",34.0544018425093,"Approved","OW414"
"2023-06-05 10:00",34.0573998683922,"Approved","OW414"
"2023-06-05 11:00",34.0603978942751,"Approved","OW414"
"2023-06-05 12:00",34.0623959201579,"Approved","OW414"
"2023-06-05 13:00",34.0623939460408,"Approved","OW414"
"2023-06-05 14:00",34.0633919719237,"Approved","OW414"
"2023-06-05 15:00",34.0643899978065,"Approved","OW414"
"2023-06-05 16:00",34.0643880236894,"Approved","OW414"
"2023-06-05 17:00",34.0633860495723,"Approved","OW414"
"2023-06-05 18:00",34.0583840754551,"Approved","OW414"
"2023-06-05 19:00",34.052382101338,"Approved","OW414"
"2023-06-05 20:00",34.0473801272209,"Approved","OW414"
"2023-06-05 21:00",34.0433781531037,"Approved","OW414"
"2023-06-05 22:00",34.0393761789866,"Approved","OW414"
"2023-06-05 23:00",34.0343742048695,"Approved","OW414"
"2023-06-06 00:00",34.0273722307524,"Approved","OW414"
"2023-06-06 01:00",34.0213702566352,"Approved","OW414"
"2023-06-06 02:00",34.0153682825181,"Approved","OW414"
"2023-06-06 03:00",34.012366308401,"Approved","OW414"
"2023-06-06 04:00",34.0103643342838,"Approved","OW414"
"2023-06-06 05:00",34.0093623601667,"Approved","OW414"
"2023-06-06 06:00",34.0083603860496,"Approved","OW414"
"2023-06-06 07:00",34.0063584119324,"Approved","OW414"
"2023-06-06 08:00",34.0033564378153,"Approved","OW414"
"2023-06-06 09:00",34.0013544636982,"Approved","OW414"
"2023-06-06 10:00",33.999352489581,"Approved","OW414"
"2023-06-06 11:00",34.0013505154639,"Approved","OW414"
"2023-06-06 12:00",33.9993485413468,"Approved","OW414"
"2023-06-06 13:00",33.9973465672297,"Approved","OW414"
"2023-06-06 14:00",33.9943445931125,"Approved","OW414"
"2023-06-06 15:00",33.9933426189954,"Approved","OW414"
"2023-06-06 16:00",33.9913406448783,"Approved","OW414"
"2023-06-06 17:00",33.9863386707611,"Approved","OW414"
"2023-06-06 18:00",33.980336696644,"Approved","OW414"
"2023-06-06 19:00",33.9753347225269,"Approved","OW414"
"2023-06-06 20:00",33.9693327484097,"Approved","OW414"
"2023-06-06 21:00",33.9633307742926,"Approved","OW414"
"2023-06-06 22:00",33.9603288001755,"Approved","OW414"
"2023-06-06 23:00",33.9553268260583,"Approved","OW414"
"2023-06-07 00:00",33.9503248519412,"Approved","OW414"
"2023-06-07 01:00",33.9453228778241,"Approved","OW414"
"2023-06-07 02:00",33.9423209037069,"Approved","OW414"
"2023-06-07 03:00",33.9403189295898,"Approved","OW414"
"2023-06-07 04:00",33.9403169554727,"Approved","OW414"
"2023-06-07 05:00",33.9433149813556,"Approved","OW414"
"2023-06-07 06:00",33.9453130072384,"Approved","OW414"
"2023-06-07 07:00",33.9503110331213,"Approved","OW414"
"2023-06-07 08:00",33.9533090590042,"Approved","OW414"
"2023-06-07 09:00",33.954307084887,"Approved","OW414"
"2023-06-07 10:00",33.9573051107699,"Approved","OW414"
"2023-06-07 11:00",33.9613031366528,"Approved","OW414"
"2023-06-07 12:00",33.9663011625356,"Approved","OW414"
"2023-06-07 13:00",33.9702991884185,"Approved","OW414"
"2023-06-07 14:00",33.9752972143014,"Approved","OW414"
"2023-06-07 15:00",33.9782952401843,"Approved","OW414"
"2023-06-07 16:00",33.9852932660671,"Approved","OW414"
"2023-06-07 17:00",33.98429129195,"Approved","OW414"
"2023-06-07 18:00",33.9842893178329,"Approved","OW414"
"2023-06-07 19:00",33.9852873437157,"Approved","OW414"
"2023-06-07 20:00",33.9832853695986,"Approved","OW414"
"2023-06-07 21:00",33.9822833954815,"Approved","OW414"
"2023-06-07 22:00",33.9822814213643,"Approved","OW414"
"2023-06-07 23:00",33.9852794472472,"Approved","OW414"
"2023-06-08 00:00",33.9842774731301,"Approved","OW414"
"2023-06-08 01:00",33.9822754990129,"Approved","OW414"
"2023-06-08 02:00",33.9812735248958,"Approved","OW414"
"2023-06-08 03:00",33.9822715507787,"Approved","OW414"
"2023-06-08 04:00",33.9862695766615,"Approved","OW414"
"2023-06-08 05:00",33.9922676025444,"Approved","OW414"
"2023-06-08 06:00",33.9992656284273,"Approved","OW414"
"2023-06-08 07:00",34.0022636543102,"Approved","OW414"
"2023-06-08 08:00",34.010261680193,"Approved","OW414"
"2023-06-08 09:00",34.0162597060759,"Approved","OW414"
"2023-06-08 10:00",34.0212577319588,"Approved","OW414"
"2023-06-08 11:00",34.0272557578416,"Approved","OW414"
"2023-06-08 12:00",34.0302537837245,"Approved","OW414"
"2023-06-08 13:00",34.0382518096074,"Approved","OW414"
"2023-06-08 14:00",34.0452498354902,"Approved","OW414"
"2023-06-08 15:00",34.0532478613731,"Approved","OW414"
"2023-06-08 16:00",34.055245887256,"Approved","OW414"
"2023-06-08 17:00",34.0522439131388,"Approved","OW414"
"2023-06-08 18:00",34.0482419390217,"Approved","OW414"
"2023-06-08 19:00",34.0472399649046,"Approved","OW414"
"2023-06-08 20:00",34.0432379907875,"Approved","OW414"
"2023-06-08 21:00",34.0402360166703,"Approved","OW414"
"2023-06-08 22:00",34.0362340425532,"Approved","OW414"
"2023-06-08 23:00",34.0302320684361,"Approved","OW414"
"2023-06-09 00:00",34.0272300943189,"Approved","OW414"
"2023-06-09 01:00",34.0242281202018,"Approved","OW414"
"2023-06-09 02:00",34.0252261460847,"Approved","OW414"
"2023-06-09 03:00",34.0302241719675,"Approved","OW414"
"2023-06-09 04:00",34.0332221978504,"Approved","OW414"
"2023-06-09 05:00",34.0312202237333,"Approved","OW414"
"2023-06-09 06:00",34.0342182496161,"Approved","OW414"
"2023-06-09 07:00",34.037216275499,"Approved","OW414"
"2023-06-09 08:00",34.0462143013819,"Approved","OW414"
"2023-06-09 09:00",34.0542123272648,"Approved","OW414"
"2023-06-09 10:00",34.0522103531476,"Approved","OW414"
"2023-06-09 11:00",34.0512083790305,"Approved","OW414"
"2023-06-09 12:00",34.0522064049134,"Approved","OW414"
"2023-06-09 13:00",34.0512044307962,"Approved","OW414"
"2023-06-09 14:00",34.0522024566791,"Approved","OW414"
"2023-06-09 15:00",34.058200482562,"Approved","OW414"
"2023-06-09 16:00",34.0631985084448,"Approved","OW414"
"2023-06-09 17:00",34.0631965343277,"Approved","OW414"
"2023-06-09 18:00",34.0671945602106,"Approved","OW414"
"2023-06-09 19:00",34.0701925860934,"Approved","OW414"
"2023-06-09 20:00",34.0691906119763,"Approved","OW414"
"2023-06-09 21:00",34.0711886378592,"Approved","OW414"
"2023-06-09 22:00",34.0691866637421,"Approved","OW414"
"2023-06-09 23:00",34.0731846896249,"Approved","OW414"
"2023-06-10 00:00",34.0701827155078,"Approved","OW414"
"2023-06-10 01:00",34.0681807413907,"Approved","OW414"
"2023-06-10 02:00",34.0671787672735,"Approved","OW414"
"2023-06-10 03:00",34.0671767931564,"Approved","OW414"
"2023-06-10 04:00",34.0681748190393,"Approved","OW414"
"2023-06-10 05:00",34.0691728449221,"Approved","OW414"
"2023-06-10 06:00",34.069170870805,"Approved","OW414"
"2023-06-10 07:00",34.0671688966879,"Approved","OW414"
"2023-06-10 08:00",34.0651669225707,"Approved","OW414"
"2023-06-10 09:00",34.0651649484536,"Approved","OW414"
"2023-06-10 10:00",34.0641629743365,"Approved","OW414"
"2023-06-10 11:00",34.0631610002193,"Approved","OW414"
"2023-06-10 12:00",34.0601590261022,"Approved","OW414"
"2023-06-10 13:00",34.0611570519851,"Approved","OW414"